Year,Month,Day,Hour,Minute,Value (Times are PST for temperature in C)
2019,05,26,00,00,13.20
2019,05,26,00,01,13.20
2019,05,26,00,02,13.30
2019,05,26,00,03,13.30
2019,05,26,00,04,13.30
2019,05,26,00,05,13.30
2019,05,26,00,06,13.30
2019,05,26,00,07,13.30
2019,05,26,00,08,13.30
2019,05,26,00,09,13.30
2019,05,26,00,10,13.30
2019,05,26,00,11,13.30
2019,05,26,00,12,13.30
2019,05,26,00,13,13.30
2019,05,26,00,14,13.30
2019,05,26,00,15,13.30
2019,05,26,00,16,13.30
2019,05,26,00,17,13.30
2019,05,26,00,18,13.30
2019,05,26,00,19,13.30
2019,05,26,00,20,13.30
2019,05,26,00,21,13.30
2019,05,26,00,22,13.30
2019,05,26,00,23,13.20
2019,05,26,00,24,13.20
2019,05,26,00,25,13.20
2019,05,26,00,26,13.20
2019,05,26,00,27,13.10
2019,05,26,00,28,13.10
2019,05,26,00,29,13.10
2019,05,26,00,30,13.10
2019,05,26,00,31,13.10
2019,05,26,00,32,13.10
2019,05,26,00,33,13.10
2019,05,26,00,34,13.20
2019,05,26,00,35,13.20
2019,05,26,00,36,13.20
2019,05,26,00,37,13.20
2019,05,26,00,38,13.20
2019,05,26,00,39,13.20
2019,05,26,00,40,13.20
2019,05,26,00,41,13.20
2019,05,26,00,42,13.20
2019,05,26,00,43,13.20
2019,05,26,00,44,13.30
2019,05,26,00,45,13.30
2019,05,26,00,46,13.30
2019,05,26,00,47,13.30
2019,05,26,00,48,13.30
2019,05,26,00,49,13.30
2019,05,26,00,50,13.30
2019,05,26,00,51,13.30
2019,05,26,00,52,13.20
2019,05,26,00,53,13.20
2019,05,26,00,54,13.20
2019,05,26,00,55,13.20
2019,05,26,00,56,13.20
2019,05,26,00,57,13.20
2019,05,26,00,58,13.10
2019,05,26,00,59,13.10
2019,05,26,01,00,13.10
2019,05,26,01,01,13.00
2019,05,26,01,02,13.00
2019,05,26,01,03,13.00
2019,05,26,01,04,12.90
2019,05,26,01,05,12.90
2019,05,26,01,06,12.80
2019,05,26,01,07,12.80
2019,05,26,01,08,12.70
2019,05,26,01,09,12.50
2019,05,26,01,10,12.50
2019,05,26,01,11,12.40
2019,05,26,01,12,12.30
2019,05,26,01,13,12.30
2019,05,26,01,14,12.20
2019,05,26,01,15,12.20
2019,05,26,01,16,12.10
2019,05,26,01,17,12.10
2019,05,26,01,18,12.10
2019,05,26,01,19,12.10
2019,05,26,01,20,12.10
2019,05,26,01,21,12.00
2019,05,26,01,22,12.00
2019,05,26,01,23,11.90
2019,05,26,01,24,11.90
2019,05,26,01,25,11.90
2019,05,26,01,26,11.80
2019,05,26,01,27,11.80
2019,05,26,01,28,11.80
2019,05,26,01,29,11.80
2019,05,26,01,30,11.70
2019,05,26,01,31,11.70
2019,05,26,01,32,11.70
2019,05,26,01,33,11.70
2019,05,26,01,34,11.60
2019,05,26,01,35,11.60
2019,05,26,01,36,11.60
2019,05,26,01,37,11.50
2019,05,26,01,38,11.50
2019,05,26,01,39,11.40
2019,05,26,01,40,11.40
2019,05,26,01,41,11.40
2019,05,26,01,42,11.40
2019,05,26,01,43,11.40
2019,05,26,01,44,11.40
2019,05,26,01,45,11.30
2019,05,26,01,46,11.30
2019,05,26,01,47,11.30
2019,05,26,01,48,11.30
2019,05,26,01,49,11.30
2019,05,26,01,50,11.30
2019,05,26,01,51,11.30
2019,05,26,01,52,11.30
2019,05,26,01,53,11.30
2019,05,26,01,54,11.30
2019,05,26,01,55,11.30
2019,05,26,01,56,11.30
2019,05,26,01,57,11.40
2019,05,26,01,58,11.40
2019,05,26,01,59,11.40
2019,05,26,02,00,11.40
2019,05,26,02,01,11.40
2019,05,26,02,02,11.50
2019,05,26,02,03,11.50
2019,05,26,02,04,11.50
2019,05,26,02,05,11.60
2019,05,26,02,06,11.60
2019,05,26,02,07,11.60
2019,05,26,02,08,11.60
2019,05,26,02,09,11.60
2019,05,26,02,10,11.60
2019,05,26,02,11,11.60
2019,05,26,02,12,11.60
2019,05,26,02,13,11.60
2019,05,26,02,14,11.60
2019,05,26,02,15,11.50
2019,05,26,02,16,11.50
2019,05,26,02,17,11.50
2019,05,26,02,18,11.50
2019,05,26,02,19,11.60
2019,05,26,02,20,11.60
2019,05,26,02,21,11.60
2019,05,26,02,22,11.60
2019,05,26,02,23,11.60
2019,05,26,02,24,11.50
2019,05,26,02,25,11.50
2019,05,26,02,26,11.50
2019,05,26,02,27,11.50
2019,05,26,02,28,11.50
2019,05,26,02,29,11.50
2019,05,26,02,30,11.40
2019,05,26,02,31,11.40
2019,05,26,02,32,11.40
2019,05,26,02,33,11.40
2019,05,26,02,34,11.40
2019,05,26,02,35,11.40
2019,05,26,02,36,11.40
2019,05,26,02,37,11.30
2019,05,26,02,38,11.30
2019,05,26,02,39,11.30
2019,05,26,02,40,11.20
2019,05,26,02,41,11.20
2019,05,26,02,42,11.20
2019,05,26,02,43,11.20
2019,05,26,02,44,11.10
2019,05,26,02,45,11.10
2019,05,26,02,46,11.10
2019,05,26,02,47,11.00
2019,05,26,02,48,11.00
2019,05,26,02,49,10.90
2019,05,26,02,50,10.90
2019,05,26,02,51,10.90
2019,05,26,02,52,10.80
2019,05,26,02,53,10.80
2019,05,26,02,54,10.80
2019,05,26,02,55,10.80
2019,05,26,02,56,10.80
2019,05,26,02,57,10.70
2019,05,26,02,58,10.70
2019,05,26,02,59,10.70
2019,05,26,03,00,10.70
2019,05,26,03,01,10.70
2019,05,26,03,02,10.70
2019,05,26,03,03,10.70
2019,05,26,03,04,10.70
2019,05,26,03,05,10.70
2019,05,26,03,06,10.70
2019,05,26,03,07,10.70
2019,05,26,03,08,10.70
2019,05,26,03,09,10.70
2019,05,26,03,10,10.70
2019,05,26,03,11,10.70
2019,05,26,03,12,10.70
2019,05,26,03,13,10.70
2019,05,26,03,14,10.70
2019,05,26,03,15,10.70
2019,05,26,03,16,10.70
2019,05,26,03,17,10.60
2019,05,26,03,18,10.60
2019,05,26,03,19,10.60
2019,05,26,03,20,10.50
2019,05,26,03,21,10.50
2019,05,26,03,22,10.50
2019,05,26,03,23,10.40
2019,05,26,03,24,10.40
2019,05,26,03,25,10.40
2019,05,26,03,26,10.30
2019,05,26,03,27,10.30
2019,05,26,03,28,10.30
2019,05,26,03,29,10.30
2019,05,26,03,30,10.20
2019,05,26,03,31,10.20
2019,05,26,03,32,10.20
2019,05,26,03,33,10.10
2019,05,26,03,34,10.10
2019,05,26,03,35,10.10
2019,05,26,03,36,10.10
2019,05,26,03,37,10.20
2019,05,26,03,38,10.20
2019,05,26,03,39,10.20
2019,05,26,03,40,10.20
2019,05,26,03,41,10.30
2019,05,26,03,42,10.30
2019,05,26,03,43,10.30
2019,05,26,03,44,10.30
2019,05,26,03,45,10.30
2019,05,26,03,46,10.20
2019,05,26,03,47,10.20
2019,05,26,03,48,10.20
2019,05,26,03,49,10.20
2019,05,26,03,50,10.20
2019,05,26,03,51,10.20
2019,05,26,03,52,10.20
2019,05,26,03,53,10.20
2019,05,26,03,54,10.20
2019,05,26,03,55,10.20
2019,05,26,03,56,10.20
2019,05,26,03,57,10.20
2019,05,26,03,58,10.20
2019,05,26,03,59,10.20
2019,05,26,04,00,10.20
2019,05,26,04,01,10.20
2019,05,26,04,02,10.10
2019,05,26,04,03,10.10
2019,05,26,04,04,10.10
2019,05,26,04,05,10.00
2019,05,26,04,06,10.00
2019,05,26,04,07,9.90
2019,05,26,04,08,9.90
2019,05,26,04,09,9.80
2019,05,26,04,10,9.80
2019,05,26,04,11,9.80
2019,05,26,04,12,9.70
2019,05,26,04,13,9.70
2019,05,26,04,14,9.70
2019,05,26,04,15,9.70
2019,05,26,04,16,9.60
2019,05,26,04,17,9.60
2019,05,26,04,18,9.60
2019,05,26,04,19,9.60
2019,05,26,04,20,9.60
2019,05,26,04,21,9.60
2019,05,26,04,22,9.60
2019,05,26,04,23,9.60
2019,05,26,04,24,9.60
2019,05,26,04,25,9.50
2019,05,26,04,26,9.50
2019,05,26,04,27,9.50
2019,05,26,04,28,9.50
2019,05,26,04,29,9.50
2019,05,26,04,30,9.50
2019,05,26,04,31,9.40
2019,05,26,04,32,9.40
2019,05,26,04,33,9.40
2019,05,26,04,34,9.40
2019,05,26,04,35,9.40
2019,05,26,04,36,9.40
2019,05,26,04,37,9.40
2019,05,26,04,38,9.40
2019,05,26,04,39,9.40
2019,05,26,04,40,9.30
2019,05,26,04,41,9.30
2019,05,26,04,42,9.30
2019,05,26,04,43,9.30
2019,05,26,04,44,9.30
2019,05,26,04,45,9.30
2019,05,26,04,46,9.30
2019,05,26,04,47,9.30
2019,05,26,04,48,9.30
2019,05,26,04,49,9.30
2019,05,26,04,50,9.30
2019,05,26,04,51,9.30
2019,05,26,04,52,9.30
2019,05,26,04,53,9.30
2019,05,26,04,54,9.30
2019,05,26,04,55,9.30
2019,05,26,04,56,9.30
2019,05,26,04,57,9.30
2019,05,26,04,58,9.40
2019,05,26,04,59,9.40
2019,05,26,05,00,9.40
2019,05,26,05,01,9.40
2019,05,26,05,02,9.40
2019,05,26,05,03,9.40
2019,05,26,05,04,9.40
2019,05,26,05,05,9.40
2019,05,26,05,06,9.40
2019,05,26,05,07,9.40
2019,05,26,05,08,9.40
2019,05,26,05,09,9.30
2019,05,26,05,10,9.30
2019,05,26,05,11,9.30
2019,05,26,05,12,9.30
2019,05,26,05,13,9.30
2019,05,26,05,14,9.30
2019,05,26,05,15,9.30
2019,05,26,05,16,9.30
2019,05,26,05,17,9.30
2019,05,26,05,18,9.30
2019,05,26,05,19,9.30
2019,05,26,05,20,9.40
2019,05,26,05,21,9.40
2019,05,26,05,22,9.50
2019,05,26,05,23,9.60
2019,05,26,05,24,9.60
2019,05,26,05,25,9.70
2019,05,26,05,26,9.70
2019,05,26,05,27,9.80
2019,05,26,05,28,9.80
2019,05,26,05,29,9.80
2019,05,26,05,30,9.80
2019,05,26,05,31,9.80
2019,05,26,05,32,9.80
2019,05,26,05,33,9.80
2019,05,26,05,34,9.80
2019,05,26,05,35,9.80
2019,05,26,05,36,9.80
2019,05,26,05,37,9.80
2019,05,26,05,38,9.80
2019,05,26,05,39,9.80
2019,05,26,05,40,9.70
2019,05,26,05,41,9.70
2019,05,26,05,42,9.70
2019,05,26,05,43,9.70
2019,05,26,05,44,9.60
2019,05,26,05,45,9.60
2019,05,26,05,46,9.60
2019,05,26,05,47,9.60
2019,05,26,05,48,9.60
2019,05,26,05,49,9.70
2019,05,26,05,50,9.70
2019,05,26,05,51,9.70
2019,05,26,05,52,9.80
2019,05,26,05,53,9.80
2019,05,26,05,54,9.80
2019,05,26,05,55,9.80
2019,05,26,05,56,9.80
2019,05,26,05,57,9.80
2019,05,26,05,58,9.80
2019,05,26,05,59,9.80
2019,05,26,06,00,9.80
2019,05,26,06,01,9.80
2019,05,26,06,02,9.80
2019,05,26,06,03,9.90
2019,05,26,06,04,9.90
2019,05,26,06,05,9.90
2019,05,26,06,06,9.90
2019,05,26,06,07,9.90
2019,05,26,06,08,9.90
2019,05,26,06,09,9.90
2019,05,26,06,10,9.90
2019,05,26,06,11,9.90
2019,05,26,06,12,9.90
2019,05,26,06,13,9.90
2019,05,26,06,14,9.90
2019,05,26,06,15,9.90
2019,05,26,06,16,9.90
2019,05,26,06,17,9.90
2019,05,26,06,18,10.00
2019,05,26,06,19,10.00
2019,05,26,06,20,10.00
2019,05,26,06,21,10.10
2019,05,26,06,22,10.10
2019,05,26,06,23,10.10
2019,05,26,06,24,10.20
2019,05,26,06,25,10.20
2019,05,26,06,26,10.30
2019,05,26,06,27,10.40
2019,05,26,06,28,10.40
2019,05,26,06,29,10.50
2019,05,26,06,30,10.60
2019,05,26,06,31,10.60
2019,05,26,06,32,10.60
2019,05,26,06,33,10.70
2019,05,26,06,34,10.70
2019,05,26,06,35,10.70
2019,05,26,06,36,10.70
2019,05,26,06,37,10.80
2019,05,26,06,38,10.80
2019,05,26,06,39,10.80
2019,05,26,06,40,10.80
2019,05,26,06,41,10.90
2019,05,26,06,42,10.90
2019,05,26,06,43,11.00
2019,05,26,06,44,11.10
2019,05,26,06,45,11.10
2019,05,26,06,46,11.20
2019,05,26,06,47,11.20
2019,05,26,06,48,11.30
2019,05,26,06,49,11.40
2019,05,26,06,50,11.40
2019,05,26,06,51,11.40
2019,05,26,06,52,11.40
2019,05,26,06,53,11.40
2019,05,26,06,54,11.40
2019,05,26,06,55,11.40
2019,05,26,06,56,11.40
2019,05,26,06,57,11.40
2019,05,26,06,58,11.40
2019,05,26,06,59,11.40
2019,05,26,07,00,11.50
2019,05,26,07,01,11.50
2019,05,26,07,02,11.50
2019,05,26,07,03,11.60
2019,05,26,07,04,11.60
2019,05,26,07,05,11.70
2019,05,26,07,06,11.70
2019,05,26,07,07,11.80
2019,05,26,07,08,11.90
2019,05,26,07,09,11.90
2019,05,26,07,10,12.00
2019,05,26,07,11,12.10
2019,05,26,07,12,12.10
2019,05,26,07,13,12.20
2019,05,26,07,14,12.30
2019,05,26,07,15,12.30
2019,05,26,07,16,12.30
2019,05,26,07,17,12.30
2019,05,26,07,18,12.40
2019,05,26,07,19,12.40
2019,05,26,07,20,12.40
2019,05,26,07,21,12.50
2019,05,26,07,22,12.50
2019,05,26,07,23,12.60
2019,05,26,07,24,12.70
2019,05,26,07,25,12.70
2019,05,26,07,26,12.90
2019,05,26,07,27,13.00
2019,05,26,07,28,13.10
2019,05,26,07,29,13.20
2019,05,26,07,30,13.30
2019,05,26,07,31,13.40
2019,05,26,07,32,13.40
2019,05,26,07,33,13.50
2019,05,26,07,34,13.60
2019,05,26,07,35,13.70
2019,05,26,07,36,13.80
2019,05,26,07,37,13.80
2019,05,26,07,38,13.90
2019,05,26,07,39,14.10
2019,05,26,07,40,14.10
2019,05,26,07,41,14.30
2019,05,26,07,42,14.40
2019,05,26,07,43,14.50
2019,05,26,07,44,14.60
2019,05,26,07,45,14.70
2019,05,26,07,46,14.70
2019,05,26,07,47,14.80
2019,05,26,07,48,14.80
2019,05,26,07,49,14.80
2019,05,26,07,50,14.90
2019,05,26,07,51,15.00
2019,05,26,07,52,15.00
2019,05,26,07,53,15.00
2019,05,26,07,54,15.00
2019,05,26,07,55,15.10
2019,05,26,07,56,15.10
2019,05,26,07,57,15.10
2019,05,26,07,58,15.10
2019,05,26,07,59,15.10
2019,05,26,08,00,15.20
2019,05,26,08,01,15.20
2019,05,26,08,02,15.20
2019,05,26,08,03,15.20
2019,05,26,08,04,15.20
2019,05,26,08,05,15.30
2019,05,26,08,06,15.30
2019,05,26,08,07,15.40
2019,05,26,08,08,15.40
2019,05,26,08,09,15.50
2019,05,26,08,10,15.60
2019,05,26,08,11,15.70
2019,05,26,08,12,15.70
2019,05,26,08,13,15.80
2019,05,26,08,14,15.80
2019,05,26,08,15,15.90
2019,05,26,08,16,16.00
2019,05,26,08,17,16.10
2019,05,26,08,18,16.20
2019,05,26,08,19,16.30
2019,05,26,08,20,16.40
2019,05,26,08,21,16.40
2019,05,26,08,22,16.30
2019,05,26,08,23,16.30
2019,05,26,08,24,16.30
2019,05,26,08,25,16.40
2019,05,26,08,26,16.40
2019,05,26,08,27,16.50
2019,05,26,08,28,16.50
2019,05,26,08,29,16.60
2019,05,26,08,30,16.70
2019,05,26,08,31,16.80
2019,05,26,08,32,16.90
2019,05,26,08,33,16.90
2019,05,26,08,34,17.00
2019,05,26,08,35,17.10
2019,05,26,08,36,17.10
2019,05,26,08,37,17.20
2019,05,26,08,38,17.20
2019,05,26,08,39,17.30
2019,05,26,08,40,17.30
2019,05,26,08,41,17.30
2019,05,26,08,42,17.30
2019,05,26,08,43,17.30
2019,05,26,08,44,17.20
2019,05,26,08,45,17.10
2019,05,26,08,46,17.10
2019,05,26,08,47,17.10
2019,05,26,08,48,17.10
2019,05,26,08,49,17.10
2019,05,26,08,50,17.20
2019,05,26,08,51,17.30
2019,05,26,08,52,17.30
2019,05,26,08,53,17.40
2019,05,26,08,54,17.50
2019,05,26,08,55,17.50
2019,05,26,08,56,17.50
2019,05,26,08,57,17.50
2019,05,26,08,58,17.50
2019,05,26,08,59,17.50
2019,05,26,09,00,17.60
2019,05,26,09,01,17.60
2019,05,26,09,02,17.70
2019,05,26,09,03,17.80
2019,05,26,09,04,17.80
2019,05,26,09,05,17.80
2019,05,26,09,06,17.80
2019,05,26,09,07,17.80
2019,05,26,09,08,17.90
2019,05,26,09,09,17.90
2019,05,26,09,10,18.00
2019,05,26,09,11,18.00
2019,05,26,09,12,18.10
2019,05,26,09,13,18.20
2019,05,26,09,14,18.20
2019,05,26,09,15,18.20
2019,05,26,09,16,18.20
2019,05,26,09,17,18.30
2019,05,26,09,18,18.30
2019,05,26,09,19,18.30
2019,05,26,09,20,18.40
2019,05,26,09,21,18.40
2019,05,26,09,22,18.50
2019,05,26,09,23,18.60
2019,05,26,09,24,18.70
2019,05,26,09,25,18.70
2019,05,26,09,26,18.60
2019,05,26,09,27,18.60
2019,05,26,09,28,18.60
2019,05,26,09,29,18.60
2019,05,26,09,30,18.60
2019,05,26,09,31,18.50
2019,05,26,09,32,18.60
2019,05,26,09,33,18.60
2019,05,26,09,34,18.70
2019,05,26,09,35,18.80
2019,05,26,09,36,18.90
2019,05,26,09,37,18.90
2019,05,26,09,38,18.90
2019,05,26,09,39,18.90
2019,05,26,09,40,19.00
2019,05,26,09,41,19.00
2019,05,26,09,42,19.00
2019,05,26,09,43,19.10
2019,05,26,09,44,19.20
2019,05,26,09,45,19.30
2019,05,26,09,46,19.50
2019,05,26,09,47,19.60
2019,05,26,09,48,19.80
2019,05,26,09,49,19.80
2019,05,26,09,50,19.90
2019,05,26,09,51,19.90
2019,05,26,09,52,19.90
2019,05,26,09,53,20.00
2019,05,26,09,54,20.00
2019,05,26,09,55,20.10
2019,05,26,09,56,20.10
2019,05,26,09,57,20.10
2019,05,26,09,58,20.10
2019,05,26,09,59,20.10
2019,05,26,10,00,20.10
2019,05,26,10,01,20.10
2019,05,26,10,02,20.10
2019,05,26,10,03,20.10
2019,05,26,10,04,20.10
2019,05,26,10,05,20.10
2019,05,26,10,06,20.00
2019,05,26,10,07,19.90
2019,05,26,10,08,19.90
2019,05,26,10,09,19.80
2019,05,26,10,10,19.80
2019,05,26,10,11,19.70
2019,05,26,10,12,19.70
2019,05,26,10,13,19.70
2019,05,26,10,14,19.70
2019,05,26,10,15,19.70
2019,05,26,10,16,19.80
2019,05,26,10,17,19.70
2019,05,26,10,18,19.70
2019,05,26,10,19,19.70
2019,05,26,10,20,19.70
2019,05,26,10,21,19.70
2019,05,26,10,22,19.70
2019,05,26,10,23,19.70
2019,05,26,10,24,19.70
2019,05,26,10,25,19.80
2019,05,26,10,26,19.80
2019,05,26,10,27,19.80
2019,05,26,10,28,19.80
2019,05,26,10,29,19.90
2019,05,26,10,30,19.90
2019,05,26,10,31,19.90
2019,05,26,10,32,19.80
2019,05,26,10,33,19.80
2019,05,26,10,34,19.70
2019,05,26,10,35,19.70
2019,05,26,10,36,19.60
2019,05,26,10,37,19.60
2019,05,26,10,38,19.70
2019,05,26,10,39,19.70
2019,05,26,10,40,19.80
2019,05,26,10,41,19.90
2019,05,26,10,42,19.90
2019,05,26,10,43,19.90
2019,05,26,10,44,19.90
2019,05,26,10,45,19.90
2019,05,26,10,46,20.00
2019,05,26,10,47,20.00
2019,05,26,10,48,20.10
2019,05,26,10,49,20.20
2019,05,26,10,50,20.20
2019,05,26,10,51,20.30
2019,05,26,10,52,20.30
2019,05,26,10,53,20.30
2019,05,26,10,54,20.30
2019,05,26,10,55,20.30
2019,05,26,10,56,20.30
2019,05,26,10,57,20.30
2019,05,26,10,58,20.30
2019,05,26,10,59,20.30
2019,05,26,11,00,20.40
2019,05,26,11,01,20.40
2019,05,26,11,02,20.40
2019,05,26,11,03,20.50
2019,05,26,11,04,20.50
2019,05,26,11,05,20.60
2019,05,26,11,06,20.60
2019,05,26,11,07,20.60
2019,05,26,11,08,20.70
2019,05,26,11,09,20.70
2019,05,26,11,10,20.70
2019,05,26,11,11,20.80
2019,05,26,11,12,20.70
2019,05,26,11,13,20.80
2019,05,26,11,14,20.80
2019,05,26,11,15,20.80
2019,05,26,11,16,20.80
2019,05,26,11,17,20.80
2019,05,26,11,18,20.80
2019,05,26,11,19,20.90
2019,05,26,11,20,20.90
2019,05,26,11,21,21.00
2019,05,26,11,22,21.10
2019,05,26,11,23,21.10
2019,05,26,11,24,21.20
2019,05,26,11,25,21.20
2019,05,26,11,26,21.10
2019,05,26,11,27,21.10
2019,05,26,11,28,21.10
2019,05,26,11,29,21.20
2019,05,26,11,30,21.20
2019,05,26,11,31,21.30
2019,05,26,11,32,21.50
2019,05,26,11,33,21.70
2019,05,26,11,34,21.90
2019,05,26,11,35,22.20
2019,05,26,11,36,22.40
2019,05,26,11,37,22.60
2019,05,26,11,38,22.80
2019,05,26,11,39,23.00
2019,05,26,11,40,23.20
2019,05,26,11,41,23.30
2019,05,26,11,42,23.40
2019,05,26,11,43,23.50
2019,05,26,11,44,23.60
2019,05,26,11,45,23.70
2019,05,26,11,46,23.80
2019,05,26,11,47,23.90
2019,05,26,11,48,23.90
2019,05,26,11,49,23.90
2019,05,26,11,50,23.90
2019,05,26,11,51,23.90
2019,05,26,11,52,23.90
2019,05,26,11,53,24.00
2019,05,26,11,54,24.00
2019,05,26,11,55,24.00
2019,05,26,11,56,24.10
2019,05,26,11,57,24.10
2019,05,26,11,58,24.10
2019,05,26,11,59,24.20
2019,05,26,12,00,24.20
2019,05,26,12,01,24.30
2019,05,26,12,02,24.30
2019,05,26,12,03,24.30
2019,05,26,12,04,24.40
2019,05,26,12,05,24.40
2019,05,26,12,06,24.50
2019,05,26,12,07,24.60
2019,05,26,12,08,24.70
2019,05,26,12,09,24.70
2019,05,26,12,10,24.70
2019,05,26,12,11,24.70
2019,05,26,12,12,24.70
2019,05,26,12,13,24.80
2019,05,26,12,14,24.80
2019,05,26,12,15,24.90
2019,05,26,12,16,24.90
2019,05,26,12,17,24.80
2019,05,26,12,18,24.70
2019,05,26,12,19,24.50
2019,05,26,12,20,24.30
2019,05,26,12,21,24.10
2019,05,26,12,22,23.90
2019,05,26,12,23,23.70
2019,05,26,12,24,23.60
2019,05,26,12,25,23.40
2019,05,26,12,26,23.40
2019,05,26,12,27,23.30
2019,05,26,12,28,23.30
2019,05,26,12,29,23.30
2019,05,26,12,30,23.20
2019,05,26,12,31,23.20
2019,05,26,12,32,23.20
2019,05,26,12,33,23.20
2019,05,26,12,34,23.20
2019,05,26,12,35,23.30
2019,05,26,12,36,23.30
2019,05,26,12,37,23.40
2019,05,26,12,38,23.40
2019,05,26,12,39,23.40
2019,05,26,12,40,23.40
2019,05,26,12,41,23.50
2019,05,26,12,42,23.50
2019,05,26,12,43,23.60
2019,05,26,12,44,23.70
2019,05,26,12,45,23.70
2019,05,26,12,46,23.80
2019,05,26,12,47,23.80
2019,05,26,12,48,23.80
2019,05,26,12,49,23.80
2019,05,26,12,50,23.80
2019,05,26,12,51,23.90
2019,05,26,12,52,24.00
2019,05,26,12,53,24.10
2019,05,26,12,54,24.20
2019,05,26,12,55,24.30
2019,05,26,12,56,24.40
2019,05,26,12,57,24.50
2019,05,26,12,58,24.70
2019,05,26,12,59,24.80
2019,05,26,13,00,24.90
2019,05,26,13,01,25.10
2019,05,26,13,02,25.20
2019,05,26,13,03,25.20
2019,05,26,13,04,25.40
2019,05,26,13,05,25.50
2019,05,26,13,06,25.70
2019,05,26,13,07,25.80
2019,05,26,13,08,26.00
2019,05,26,13,09,26.20
2019,05,26,13,10,26.20
2019,05,26,13,11,26.30
2019,05,26,13,12,26.40
2019,05,26,13,13,26.50
2019,05,26,13,14,26.60
2019,05,26,13,15,26.70
2019,05,26,13,16,26.80
2019,05,26,13,17,26.80
2019,05,26,13,18,26.80
2019,05,26,13,19,26.80
2019,05,26,13,20,26.80
2019,05,26,13,21,26.90
2019,05,26,13,22,26.90
2019,05,26,13,23,27.00
2019,05,26,13,24,27.00
2019,05,26,13,25,27.10
2019,05,26,13,26,27.00
2019,05,26,13,27,27.10
2019,05,26,13,28,27.10
2019,05,26,13,29,27.20
2019,05,26,13,30,27.20
2019,05,26,13,31,27.30
2019,05,26,13,32,27.30
2019,05,26,13,33,27.20
2019,05,26,13,34,27.30
2019,05,26,13,35,27.30
2019,05,26,13,36,27.30
2019,05,26,13,37,27.30
2019,05,26,13,38,27.40
2019,05,26,13,39,27.40
2019,05,26,13,40,27.50
2019,05,26,13,41,27.50
2019,05,26,13,42,27.30
2019,05,26,13,43,27.20
2019,05,26,13,44,27.00
2019,05,26,13,45,26.90
2019,05,26,13,46,26.80
2019,05,26,13,47,26.80
2019,05,26,13,48,26.80
2019,05,26,13,49,26.80
2019,05,26,13,50,26.80
2019,05,26,13,51,26.80
2019,05,26,13,52,26.90
2019,05,26,13,53,26.90
2019,05,26,13,54,26.90
2019,05,26,13,55,26.80
2019,05,26,13,56,26.80
2019,05,26,13,57,26.70
2019,05,26,13,58,26.60
2019,05,26,13,59,26.50
2019,05,26,14,00,26.40
2019,05,26,14,01,26.30
2019,05,26,14,02,26.20
2019,05,26,14,03,26.20
2019,05,26,14,04,26.20
2019,05,26,14,05,26.20
2019,05,26,14,06,26.30
2019,05,26,14,07,26.30
2019,05,26,14,08,26.30
2019,05,26,14,09,26.30
2019,05,26,14,10,26.40
2019,05,26,14,11,26.30
2019,05,26,14,12,26.30
2019,05,26,14,13,26.30
2019,05,26,14,14,26.30
2019,05,26,14,15,26.30
2019,05,26,14,16,26.40
2019,05,26,14,17,26.50
2019,05,26,14,18,26.50
2019,05,26,14,19,26.60
2019,05,26,14,20,26.60
2019,05,26,14,21,26.60
2019,05,26,14,22,26.60
2019,05,26,14,23,26.60
2019,05,26,14,24,26.60
2019,05,26,14,25,26.70
2019,05,26,14,26,26.70
2019,05,26,14,27,26.80
2019,05,26,14,28,26.80
2019,05,26,14,29,26.80
2019,05,26,14,30,26.90
2019,05,26,14,31,26.90
2019,05,26,14,32,26.90
2019,05,26,14,33,26.80
2019,05,26,14,34,26.80
2019,05,26,14,35,26.70
2019,05,26,14,36,26.70
2019,05,26,14,37,26.60
2019,05,26,14,38,26.60
2019,05,26,14,39,26.60
2019,05,26,14,40,26.70
2019,05,26,14,41,26.70
2019,05,26,14,42,26.70
2019,05,26,14,43,26.70
2019,05,26,14,44,26.70
2019,05,26,14,45,26.70
2019,05,26,14,46,26.70
2019,05,26,14,47,26.70
2019,05,26,14,48,26.80
2019,05,26,14,49,26.80
2019,05,26,14,50,26.70
2019,05,26,14,51,26.70
2019,05,26,14,52,26.70
2019,05,26,14,53,26.70
2019,05,26,14,54,26.80
2019,05,26,14,55,26.80
2019,05,26,14,56,26.80
2019,05,26,14,57,26.80
2019,05,26,14,58,26.80
2019,05,26,14,59,26.80
2019,05,26,15,00,26.90
2019,05,26,15,01,26.90
2019,05,26,15,02,27.00
2019,05,26,15,03,27.00
2019,05,26,15,04,27.10
2019,05,26,15,05,27.20
2019,05,26,15,06,27.20
2019,05,26,15,07,27.20
2019,05,26,15,08,27.20
2019,05,26,15,09,27.20
2019,05,26,15,10,27.20
2019,05,26,15,11,27.20
2019,05,26,15,12,27.20
2019,05,26,15,13,27.30
2019,05,26,15,14,27.40
2019,05,26,15,15,27.40
2019,05,26,15,16,27.40
2019,05,26,15,17,27.40
2019,05,26,15,18,27.40
2019,05,26,15,19,27.40
2019,05,26,15,20,27.40
2019,05,26,15,21,27.40
2019,05,26,15,22,27.30
2019,05,26,15,23,27.20
2019,05,26,15,24,27.20
2019,05,26,15,25,27.10
2019,05,26,15,26,27.10
2019,05,26,15,27,27.10
2019,05,26,15,28,27.10
2019,05,26,15,29,27.10
2019,05,26,15,30,27.00
2019,05,26,15,31,27.10
2019,05,26,15,32,27.00
2019,05,26,15,33,27.00
2019,05,26,15,34,27.00
2019,05,26,15,35,27.00
2019,05,26,15,36,27.00
2019,05,26,15,37,26.90
2019,05,26,15,38,26.90
2019,05,26,15,39,26.90
2019,05,26,15,40,26.90
2019,05,26,15,41,26.90
2019,05,26,15,42,27.00
2019,05,26,15,43,27.00
2019,05,26,15,44,27.00
2019,05,26,15,45,27.00
2019,05,26,15,46,27.10
2019,05,26,15,47,27.10
2019,05,26,15,48,27.20
2019,05,26,15,49,27.20
2019,05,26,15,50,27.20
2019,05,26,15,51,27.20
2019,05,26,15,52,27.20
2019,05,26,15,53,27.30
2019,05,26,15,54,27.30
2019,05,26,15,55,27.30
2019,05,26,15,56,27.40
2019,05,26,15,57,27.50
2019,05,26,15,58,27.50
2019,05,26,15,59,27.60
2019,05,26,16,00,27.60
2019,05,26,16,01,27.60
2019,05,26,16,02,27.50
2019,05,26,16,03,27.50
2019,05,26,16,04,27.40
2019,05,26,16,05,27.40
2019,05,26,16,06,27.40
2019,05,26,16,07,27.40
2019,05,26,16,08,27.40
2019,05,26,16,09,27.40
2019,05,26,16,10,27.40
2019,05,26,16,11,27.40
2019,05,26,16,12,27.40
2019,05,26,16,13,27.50
2019,05,26,16,14,27.50
2019,05,26,16,15,27.60
2019,05,26,16,16,27.70
2019,05,26,16,17,27.70
2019,05,26,16,18,27.60
2019,05,26,16,19,27.60
2019,05,26,16,20,27.60
2019,05,26,16,21,27.50
2019,05,26,16,22,27.50
2019,05,26,16,23,27.50
2019,05,26,16,24,27.50
2019,05,26,16,25,27.50
2019,05,26,16,26,27.60
2019,05,26,16,27,27.60
2019,05,26,16,28,27.60
2019,05,26,16,29,27.70
2019,05,26,16,30,27.70
2019,05,26,16,31,27.80
2019,05,26,16,32,27.80
2019,05,26,16,33,27.80
2019,05,26,16,34,27.80
2019,05,26,16,35,27.80
2019,05,26,16,36,27.90
2019,05,26,16,37,27.90
2019,05,26,16,38,28.00
2019,05,26,16,39,28.00
2019,05,26,16,40,28.10
2019,05,26,16,41,28.10
2019,05,26,16,42,28.20
2019,05,26,16,43,28.20
2019,05,26,16,44,28.20
2019,05,26,16,45,28.30
2019,05,26,16,46,28.30
2019,05,26,16,47,28.50
2019,05,26,16,48,28.50
2019,05,26,16,49,28.60
2019,05,26,16,50,28.50
2019,05,26,16,51,28.40
2019,05,26,16,52,28.30
2019,05,26,16,53,28.30
2019,05,26,16,54,28.30
2019,05,26,16,55,28.20
2019,05,26,16,56,28.20
2019,05,26,16,57,28.20
2019,05,26,16,58,28.20
2019,05,26,16,59,28.20
2019,05,26,17,00,28.20
2019,05,26,17,01,28.20
2019,05,26,17,02,28.10
2019,05,26,17,03,28.00
2019,05,26,17,04,28.00
2019,05,26,17,05,27.90
2019,05,26,17,06,27.90
2019,05,26,17,07,28.00
2019,05,26,17,08,28.10
2019,05,26,17,09,28.10
2019,05,26,17,10,28.20
2019,05,26,17,11,28.20
2019,05,26,17,12,28.20
2019,05,26,17,13,28.20
2019,05,26,17,14,28.20
2019,05,26,17,15,28.10
2019,05,26,17,16,28.10
2019,05,26,17,17,28.10
2019,05,26,17,18,28.10
2019,05,26,17,19,28.10
2019,05,26,17,20,28.20
2019,05,26,17,21,28.20
2019,05,26,17,22,28.20
2019,05,26,17,23,28.20
2019,05,26,17,24,28.10
2019,05,26,17,25,28.10